KA5RUC Weather Reports


Display with metric or nautical units.
time (UTC)temp
F
wind
direction
speed
MPH
gust
MPH
rain 1hr
in
rain 24hr
in
rain mn
in
humidity
%
barometer
mb
20260507144325 51 319 2.0 0.0 0.00 0.00 0.00 54 1016.6
20260507143834 50 322 3.0 0.0 0.00 0.00 0.00 53 1016.6
20260507143320 50 296 4.0 0.0 0.00 0.00 0.00 53 1016.6
20260507142317 50 279 5.0 0.0 0.00 0.00 0.00 54 1016.6
20260507141826 50 292 4.0 0.0 0.00 0.00 0.00 53 1016.7
20260507141316 49 271 3.0 0.0 0.00 0.00 0.00 54 1016.7
20260507140825 49 285 2.0 0.0 0.00 0.00 0.00 55 1016.7
20260507140332 49 310 2.0 0.0 0.00 0.00 0.00 56 1016.7
20260507135819 49 322 2.0 0.0 0.00 0.00 0.00 56 1016.7
20260507135327 49 336 3.0 0.0 0.00 0.00 0.00 59 1016.7
20260507134836 49 270 3.0 0.0 0.00 0.00 0.00 57 1016.6
20260507134324 49 298 1.0 0.0 0.00 0.00 0.00 60 1016.6
20260507133833 49 319 2.0 0.0 0.00 0.00 0.00 59 1016.6
20260507133319 49 344 2.0 0.0 0.00 0.00 0.00 61 1016.7
20260507131814 48 329 1.0 0.0 0.00 0.00 0.00 66 1016.7
20260507131324 47 296 1.0 0.0 0.00 0.00 0.00 66 1016.7
20260507130833 47 345 1.0 0.0 0.00 0.00 0.00 68 1016.7
20260507130321 47 281 1.0 0.0 0.00 0.00 0.00 70 1016.7
20260507125828 47 338 1.0 0.0 0.00 0.00 0.00 71 1016.7
20260507125336 46 286 1.0 0.0 0.00 0.00 0.00 72 1016.7
20260507124333 46 333 1.0 0.0 0.00 0.00 0.00 75 1016.7
20260507123330 45 323 0.0 0.0 0.00 0.00 0.00 78 1016.7
20260507122823 45 330 0.0 0.0 0.00 0.00 0.00 80 1016.7
20260507122330 45 308 0.0 0.0 0.00 0.00 0.00 81 1016.7
20260507121818 44 286 0.0 0.0 0.00 0.00 0.00 83 1016.7
20260507121325 44 292 0.0 0.0 0.00 0.00 0.00 84 1016.7
20260507120834 44 330 0.0 0.0 0.00 0.00 0.00 86 1016.7
20260507115833 43 305 0.0 0.0 0.00 0.00 0.00 88 1016.7
20260507115320 42 305 0.0 0.0 0.00 0.00 0.00 88 1016.7
20260507114830 42 318 0.0 0.0 0.00 0.00 0.00 89 1016.7
20260507114323 42 315 0.0 0.0 0.00 0.00 0.00 90 1016.7
20260507113831 41 315 0.0 0.0 0.00 0.00 0.00 90 1016.7
20260507113317 41 313 0.0 0.0 0.00 0.00 0.00 91 1016.7
20260507111827 40 313 0.0 0.0 0.00 0.00 0.00 91 1016.2
20260507111335 40 313 0.0 0.0 0.00 0.00 0.00 91 1016.2
20260507110824 39 313 0.0 0.0 0.00 0.00 0.00 90 1016.2
20260507105820 39 314 0.0 0.0 0.00 0.00 0.00 90 1016.2
20260507105331 40 314 0.0 0.0 0.00 0.00 0.00 90 1016.2
20260507104824 40 313 0.0 0.0 0.00 0.00 0.00 90 1016.1
20260507104332 40 314 0.0 0.0 0.00 0.00 0.00 90 1016.1
20260507103328 40 313 0.0 0.0 0.00 0.00 0.00 90 1016.1
20260507102817 40 313 0.0 0.0 0.00 0.00 0.00 91 1016.1
20260507102324 40 314 0.0 0.0 0.00 0.00 0.00 90 1016.1
20260507101832 40 314 0.0 0.0 0.00 0.00 0.00 90 1016.1
20260507101319 40 314 0.0 0.0 0.00 0.00 0.00 90 1016.1
20260507100829 40 314 0.0 0.0 0.00 0.00 0.00 90 1016.1
20260507100336 40 314 0.0 0.0 0.00 0.00 0.00 91 1016.1
20260507095828 40 314 0.0 0.0 0.00 0.00 0.00 91 1016.1
20260507095336 40 313 0.0 0.0 0.00 0.00 0.00 91 1016.1
20260507094822 40 314 0.0 0.0 0.00 0.00 0.00 91 1016.1
20260507094333 40 314 0.0 0.0 0.00 0.00 0.00 91 1016.1
20260507093822 41 314 0.0 0.0 0.00 0.00 0.00 91 1016.1
20260507093328 41 314 0.0 0.0 0.00 0.00 0.00 91 1015.8
20260507092815 41 314 0.0 0.0 0.00 0.00 0.00 91 1015.8
20260507092326 41 314 0.0 0.0 0.00 0.00 0.00 91 1015.8
20260507091325 41 314 0.0 0.0 0.00 0.00 0.00 91 1015.8
20260507090326 41 314 0.0 0.0 0.00 0.00 0.00 91 1015.7
20260507085834 41 314 0.0 0.0 0.00 0.00 0.00 91 1015.7
20260507085322 41 314 0.0 0.0 0.00 0.00 0.00 91 1015.7
20260507084830 41 314 0.0 0.0 0.00 0.00 0.00 91 1015.6
20260507083828 42 314 0.0 0.0 0.00 0.00 0.00 91 1015.6
20260507083336 42 314 0.0 0.0 0.00 0.00 0.00 91 1015.5
20260507082823 42 314 0.0 0.0 0.00 0.00 0.00 91 1015.5
20260507082332 42 314 0.0 0.0 0.00 0.00 0.00 91 1015.5
20260507081825 42 314 0.0 0.0 0.00 0.00 0.00 91 1015.5
20260507081331 42 313 0.0 0.0 0.00 0.00 0.00 91 1015.5
20260507080822 42 314 0.0 0.0 0.00 0.00 0.00 91 1015.5
20260507080329 42 314 0.0 0.0 0.00 0.00 0.00 91 1015.5
20260507075817 42 314 0.0 0.0 0.00 0.00 0.00 91 1015.5
20260507074835 42 314 0.0 0.0 0.00 0.00 0.00 91 1015.6
20260507074324 42 314 0.0 0.0 0.00 0.00 0.00 91 1015.6
20260507073832 42 314 0.0 0.0 0.00 0.00 0.00 91 1015.6
20260507073319 43 314 0.0 0.0 0.00 0.00 0.00 91 1015.6
20260507072830 43 314 0.0 0.0 0.00 0.00 0.00 91 1015.6
20260507072318 43 314 0.0 0.0 0.00 0.00 0.00 91 1015.6
20260507071336 43 314 0.0 0.0 0.00 0.00 0.00 91 1015.6
20260507070825 43 313 0.0 0.0 0.00 0.00 0.00 91 1015.6
20260507070332 42 314 0.0 0.0 0.00 0.00 0.00 90 1015.7
20260507065819 43 314 0.0 0.0 0.00 0.00 0.00 90 1015.7
20260507065328 43 314 0.0 0.0 0.00 0.00 0.00 90 1015.7
20260507063837 43 314 0.0 0.0 0.00 0.00 0.00 90 1015.8
20260507063329 43 314 0.0 0.0 0.00 0.00 0.00 90 1015.9
20260507062836 43 314 0.0 0.0 0.00 0.00 0.00 89 1015.9
20260507062325 43 314 0.0 0.0 0.00 0.00 0.00 89 1015.9
20260507061832 43 314 0.0 0.0 0.00 0.00 0.00 89 1015.9
20260507061320 44 314 0.0 0.0 0.00 0.00 0.00 89 1015.9
20260507060829 44 314 0.0 0.0 0.00 0.00 0.00 88 1015.9
20260507060335 44 313 0.0 0.0 0.00 0.00 0.00 88 1016.0
20260507055823 44 314 0.0 0.0 0.00 0.00 0.00 88 1016.0
20260507055330 44 314 0.0 0.0 0.00 0.00 0.00 87 1016.0
20260507054823 44 314 0.0 0.0 0.00 0.00 0.00 86 1015.9
20260507053821 45 314 0.0 0.0 0.00 0.00 0.00 85 1015.9
20260507053329 45 314 0.0 0.0 0.00 0.00 0.00 84 1016.1
20260507052817 45 314 0.0 0.0 0.00 0.00 0.00 84 1016.1
20260507052325 46 314 0.0 0.0 0.00 0.00 0.00 84 1016.1
20260507051832 46 313 0.0 0.0 0.00 0.00 0.00 84 1016.1
20260507051321 46 314 0.0 0.0 0.00 0.00 0.00 84 1016.1
20260507050829 46 314 0.0 0.0 0.00 0.00 0.00 84 1016.1
20260507050335 46 314 0.0 0.0 0.00 0.00 0.00 84 1016.1
20260507045826 47 314 0.0 0.0 0.00 0.00 0.00 84 1016.1
20260507045333 47 314 0.0 0.0 0.00 0.00 0.00 84 1016.1
20260507043823 46 314 0.0 0.0 0.00 0.00 0.00 83 1015.9
20260507043332 46 314 0.0 0.0 0.00 0.00 0.00 82 1016.0
20260507042821 47 314 0.0 0.0 0.00 0.00 0.00 82 1016.0
20260507042328 47 314 0.0 0.0 0.00 0.00 0.00 82 1016.0
20260507041817 47 314 0.0 0.0 0.00 0.00 0.00 81 1015.7
20260507040835 47 314 0.0 0.0 0.00 0.00 0.00 80 1015.7
20260507035836 47 314 0.0 0.0 0.00 0.00 0.02 78 1015.9
20260507035324 47 314 0.0 0.0 0.00 0.00 0.02 77 1015.9
20260507034832 48 314 0.0 0.0 0.00 0.00 0.02 77 1015.8
20260507034319 48 314 0.0 0.0 0.00 0.00 0.02 77 1015.8
20260507033828 48 314 0.0 0.0 0.00 0.00 0.02 77 1015.8
20260507032824 48 314 0.0 0.0 0.00 0.00 0.02 76 1016.0
20260507032331 48 314 0.0 0.0 0.00 0.00 0.02 76 1016.0
20260507031819 48 314 0.0 0.0 0.00 0.00 0.02 76 1016.0
20260507030823 48 314 0.0 0.0 0.00 0.00 0.02 76 1016.0
20260507025820 48 314 0.0 0.0 0.00 0.00 0.02 76 1016.1
20260507025329 48 314 0.0 0.0 0.00 0.00 0.02 76 1016.1
20260507024327 49 314 0.0 0.0 0.00 0.00 0.02 75 1016.1
20260507023835 49 314 0.0 0.0 0.00 0.00 0.02 74 1016.1
20260507022835 49 314 0.0 0.0 0.00 0.00 0.02 73 1016.0
20260507022322 49 314 0.0 0.0 0.00 0.00 0.02 72 1016.0
20260507021831 50 314 0.0 0.0 0.00 0.00 0.02 72 1015.9
20260507021324 50 314 0.0 0.0 0.00 0.00 0.02 71 1015.9
20260507020831 50 314 0.0 0.0 0.00 0.00 0.02 71 1015.9
20260507020320 50 314 0.0 0.0 0.00 0.00 0.02 70 1015.6
20260507015829 50 313 0.0 0.0 0.00 0.00 0.02 69 1015.6
20260507015316 51 314 0.0 0.0 0.00 0.00 0.02 69 1015.6
20260507014825 51 314 0.0 0.0 0.00 0.00 0.02 69 1015.5
20260507014332 51 314 0.0 0.0 0.00 0.00 0.02 69 1015.5
20260507013820 51 314 0.0 0.0 0.00 0.00 0.02 68 1015.5
20260507013328 52 314 0.0 0.0 0.00 0.00 0.02 68 1015.4
20260507012818 52 314 0.0 0.0 0.00 0.00 0.02 67 1015.4
20260507012327 52 314 0.0 0.0 0.00 0.00 0.02 67 1015.4
20260507011833 52 314 0.0 0.0 0.00 0.00 0.02 67 1015.5
20260507011322 52 314 0.0 0.0 0.00 0.00 0.02 66 1015.5
20260507010319 52 313 0.0 0.0 0.00 0.00 0.02 66 1015.4
20260507005317 53 313 0.0 0.0 0.00 0.00 0.02 65 1015.4
20260507004825 53 314 0.0 0.0 0.00 0.00 0.02 65 1015.0
20260507004332 53 314 0.0 0.0 0.00 0.00 0.02 65 1015.0
20260507003823 53 313 0.0 0.0 0.00 0.00 0.02 65 1015.0
20260507003333 53 315 0.0 0.0 0.00 0.00 0.02 64 1014.9
20260507002820 53 315 0.0 0.0 0.00 0.00 0.02 63 1014.9
20260507002331 53 315 0.0 0.0 0.00 0.00 0.02 62 1014.9
20260507001818 54 315 0.0 0.0 0.00 0.00 0.02 61 1014.9
20260507001328 54 315 0.0 0.0 0.00 0.00 0.02 61 1014.9
20260507000837 54 315 0.0 0.0 0.00 0.00 0.02 61 1014.9
20260507000324 54 315 0.0 0.0 0.00 0.00 0.02 61 1014.8
20260506235324 55 284 0.0 0.0 0.00 0.00 0.01 59 1014.8
20260506234832 55 284 0.0 0.0 0.00 0.00 0.01 59 1014.5
20260506234324 55 284 1.0 0.0 0.00 0.00 0.01 58 1014.5
20260506233320 56 303 1.0 0.0 0.00 0.00 0.01 57 1014.5
20260506232829 56 288 1.0 0.0 0.00 0.00 0.01 57 1014.5
20260506232317 56 293 0.0 0.0 0.00 0.00 0.01 57 1014.5
20260506231825 56 345 1.0 0.0 0.00 0.00 0.01 56 1014.7
20260506230823 57 333 2.0 0.0 0.00 0.00 0.01 55 1014.7
20260506230333 56 279 2.0 0.0 0.00 0.00 0.01 54 1014.7
20260506225820 56 289 0.0 0.0 0.00 0.00 0.01 56 1014.7
20260506225332 56 327 1.0 0.0 0.00 0.00 0.01 56 1014.7
20260506224820 55 329 0.0 0.0 0.00 0.00 0.01 57 1014.9
20260506224328 55 355 0.0 0.0 0.00 0.00 0.01 56 1014.9
20260506223816 55 327 0.0 0.0 0.00 0.00 0.01 58 1014.9
20260506223325 55 355 0.0 0.0 0.00 0.00 0.01 56 1014.9
20260506222832 55 284 0.0 0.0 0.00 0.00 0.01 57 1014.9
20260506222323 55 324 0.0 0.0 0.00 0.00 0.01 58 1014.9
20260506221830 55 289 0.0 0.0 0.00 0.00 0.01 57 1014.9
20260506221319 55 284 0.0 0.0 0.00 0.00 0.01 56 1014.9
20260506215831 56 348 0.0 0.0 0.00 0.00 0.01 57 1014.9
20260506215317 56 338 0.0 0.0 0.00 0.00 0.01 58 1014.9
20260506214825 56 314 0.0 0.0 0.00 0.00 0.01 58 1014.9
20260506214330 56 313 0.0 0.0 0.00 0.00 0.01 56 1014.9
20260506213838 56 43 0.0 0.0 0.00 0.00 0.01 56 1014.9
20260506213325 56 329 0.0 0.0 0.00 0.00 0.01 56 1014.6
20260506212830 56 50 0.0 0.0 0.00 0.00 0.01 55 1014.6
20260506212319 56 254 1.0 0.0 0.00 0.00 0.01 55 1014.6
20260506211321 56 309 2.0 0.0 0.00 0.00 0.01 56 1014.4
20260506210830 56 330 1.0 0.0 0.00 0.00 0.01 57 1014.4
20260506210337 56 327 0.0 0.0 0.00 0.00 0.01 56 1014.4
20260506205823 56 342 0.0 0.0 0.00 0.00 0.01 57 1014.4
20260506205331 56 311 1.0 0.0 0.00 0.00 0.01 58 1014.4
20260506204819 56 346 1.0 0.0 0.00 0.00 0.01 56 1014.4
20260506204326 56 346 0.0 0.0 0.00 0.00 0.01 58 1014.4
20260506203816 56 355 0.0 0.0 0.00 0.00 0.01 55 1014.4
20260506203326 56 313 0.0 0.0 0.00 0.00 0.01 57 1014.3
20260506202816 56 328 0.0 0.0 0.00 0.00 0.01 58 1014.3
20260506202325 56 298 0.0 0.0 0.00 0.00 0.01 56 1014.3
20260506201832 56 287 0.0 0.0 0.00 0.00 0.01 55 1014.3
20260506201322 56 340 0.0 0.0 0.00 0.00 0.01 55 1014.3
20260506200831 56 336 1.0 0.0 0.00 0.00 0.01 55 1014.3
20260506200318 56 287 2.0 0.0 0.00 0.00 0.01 55 1014.3
20260506195827 56 338 1.0 0.0 0.00 0.00 0.01 56 1014.3
20260506195335 56 319 0.0 0.0 0.00 0.00 0.01 55 1014.3
20260506194823 56 338 1.0 0.0 0.00 0.00 0.01 54 1014.0
20260506193824 57 263 1.0 0.0 0.00 0.00 0.01 53 1014.0
20260506193331 57 315 1.0 0.0 0.00 0.00 0.01 55 1014.0
20260506192819 57 317 2.0 0.0 0.00 0.00 0.01 54 1014.0
20260506192328 57 338 2.0 0.0 0.00 0.00 0.01 53 1014.0
20260506190837 57 319 2.0 0.0 0.00 0.00 0.01 55 1014.2
20260506190323 57 303 2.0 0.0 0.00 0.00 0.01 55 1013.9
20260506185830 57 284 1.0 0.0 0.00 0.00 0.01 54 1013.9
20260506185321 57 341 1.0 0.0 0.00 0.00 0.01 55 1013.9
20260506184828 57 323 2.0 0.0 0.00 0.00 0.01 55 1013.8
20260506183832 58 325 2.0 0.0 0.00 0.00 0.01 53 1013.8
20260506183318 58 355 2.0 0.0 0.00 0.00 0.01 56 1013.7
20260506182829 58 331 2.0 0.0 0.00 0.00 0.01 55 1013.7
20260506182316 58 327 1.0 0.0 0.00 0.00 0.01 57 1013.7
20260506181825 58 346 1.0 0.0 0.00 0.00 0.01 54 1014.1
20260506181332 58 360 1.0 0.0 0.00 0.00 0.01 58 1014.1
20260506180821 57 5 1.0 0.0 0.00 0.00 0.01 56 1014.1
20260506180328 57 345 1.0 0.0 0.00 0.00 0.01 59 1014.3
20260506175820 57 296 2.0 0.0 0.00 0.00 0.01 56 1014.3
20260506175328 57 345 1.0 0.0 0.00 0.00 0.01 55 1014.3
20260506174835 58 355 1.0 0.0 0.00 0.00 0.01 55 1014.1
20260506174323 57 20 1.0 0.0 0.00 0.00 0.01 57 1014.1
20260506173831 57 336 2.0 0.0 0.00 0.00 0.01 58 1014.1
20260506172828 57 301 1.0 0.0 0.00 0.00 0.01 59 1014.2
20260506171827 57 317 2.0 0.0 0.00 0.00 0.01 56 1014.2
20260506170314 57 355 0.0 0.0 0.00 0.00 0.01 63 1014.3
20260506164832 56 144 0.0 0.0 0.00 0.00 0.01 58 1014.1
20260506164319 56 355 0.0 0.0 0.00 0.00 0.01 60 1014.1
20260506163827 55 305 1.0 0.0 0.00 0.00 0.01 60 1014.1
20260506163317 55 329 1.0 0.0 0.00 0.00 0.01 60 1014.2
20260506162826 55 355 0.0 0.0 0.00 0.00 0.01 60 1014.2
20260506162335 56 355 0.0 0.0 0.00 0.00 0.01 60 1014.2
20260506161332 56 355 0.0 0.0 0.00 0.00 0.01 61 1014.3
20260506160821 55 5 0.0 0.0 0.00 0.00 0.01 64 1014.3
20260506160331 54 340 0.0 0.0 0.00 0.00 0.01 65 1014.2
20260506155329 54 319 0.0 0.0 0.00 0.00 0.01 64 1014.2
20260506154330 53 60 0.0 0.0 0.00 0.00 0.01 68 1014.2
20260506153328 53 273 2.0 0.0 0.00 0.00 0.01 68 1014.1
20260506152836 53 311 1.0 0.0 0.00 0.00 0.01 68 1014.1
20260506152323 53 302 0.0 0.0 0.00 0.00 0.01 70 1014.1
20260506151831 53 348 0.0 0.0 0.00 0.00 0.01 71 1013.4
20260506151321 52 52 0.0 0.0 0.00 0.00 0.01 71 1013.4
20260506150834 52 330 0.0 0.0 0.00 0.00 0.01 71 1013.4
20260506145831 51 332 0.0 0.0 0.00 0.00 0.01 75 1013.1
20260506145318 51 63 1.0 0.0 0.00 0.00 0.01 74 1013.1
20260506144827 51 331 1.0 0.0 0.00 0.00 0.01 74 1013.1